LHX3VX EDDM-LRTR

Flight info

Callsign LHX3VX
Flight time 1h 16m
Altitude 37000
Route KIRDI2E KIRDI DCT BUBSE DCT GOTAR DCT BABIT/N0350F190 Y574 ROMUX ROMUS3B
Aircraft A319/M-SDE2E3FGIJ1LORWXY/HB1

Departure

Time 2026-05-04 10:59
Airport Munich Airport (EDDM)

Arrival

Time 2026-05-04 12:16
Airport Timișoara Traian Vuia International Airport (LRTR)
Time Latitude Longitude Altitude Speed Heading
2026-05-04 10:28 48.35330 11.80281 1475 ft 0 kts 83°
2026-05-04 10:44 48.35325 11.80208 1476 ft 3 kts 127°
2026-05-04 10:45 48.35337 11.80196 1474 ft 2 kts 172°
2026-05-04 10:45 48.35349 11.80194 1477 ft 3 kts 173°
2026-05-04 10:45 48.35357 11.80193 1481 ft 0 kts 173°
2026-05-04 10:51 48.35105 11.80142 1485 ft 15 kts 264°
2026-05-04 10:52 48.35092 11.79976 1485 ft 17 kts 263°
2026-05-04 10:52 48.35077 11.79780 1483 ft 20 kts 263°
2026-05-04 10:52 48.35060 11.79579 1479 ft 19 kts 252°
2026-05-04 10:54 48.34723 11.78670 1473 ft 18 kts 263°
2026-05-04 10:54 48.34707 11.78476 1479 ft 19 kts 263°
2026-05-04 10:56 48.34596 11.77031 1485 ft 23 kts 263°
2026-05-04 10:56 48.34578 11.76788 1482 ft 24 kts 263°
2026-05-04 10:56 48.34558 11.76535 1485 ft 25 kts 263°
2026-05-04 10:57 48.34538 11.76272 1485 ft 26 kts 263°
2026-05-04 10:57 48.34517 11.75999 1485 ft 27 kts 263°
2026-05-04 10:57 48.34495 11.75718 1485 ft 27 kts 263°
2026-05-04 10:57 48.34474 11.75446 1485 ft 26 kts 263°
2026-05-04 10:58 48.34429 11.75222 1485 ft 19 kts 198°
2026-05-04 10:58 48.34295 11.75237 1480 ft 19 kts 173°
2026-05-04 10:58 48.34159 11.75262 1472 ft 19 kts 173°
2026-05-04 10:58 48.34091 11.75397 1477 ft 18 kts 85°
2026-05-04 10:59 48.34110 11.75645 1485 ft 44 kts 83°
2026-05-04 10:59 48.34173 11.76463 1486 ft 110 kts 83°
2026-05-04 10:59 48.34282 11.77852 1547 ft 154 kts 82°
2026-05-04 10:59 48.34393 11.79445 2204 ft 153 kts 84°
2026-05-04 11:00 48.34511 11.81053 2850 ft 156 kts 83°
2026-05-04 11:01 48.34409 11.96923 6797 ft 270 kts 116°
2026-05-04 11:02 48.33640 11.99503 7588 ft 277 kts 116°
2026-05-04 11:02 48.32838 12.02167 8443 ft 283 kts 116°
2026-05-04 11:05 48.23306 12.45850 17823 ft 378 kts 93°
2026-05-04 11:06 48.23262 12.49817 18435 ft 383 kts 93°
2026-05-04 11:06 48.23218 12.53825 18993 ft 386 kts 93°
2026-05-04 11:06 48.23075 12.57854 19572 ft 388 kts 99°
2026-05-04 11:06 48.22832 12.60511 19960 ft 389 kts 100°
2026-05-04 11:08 48.20935 12.89583 23870 ft 413 kts 89°
2026-05-04 11:10 48.21583 13.20357 26802 ft 433 kts 89°
2026-05-04 11:12 48.18980 13.51772 29504 ft 449 kts 123°
2026-05-04 11:12 48.17284 13.55792 29893 ft 452 kts 123°
2026-05-04 11:12 48.15625 13.59734 30211 ft 455 kts 123°
2026-05-04 11:12 48.13934 13.63763 30513 ft 457 kts 123°
2026-05-04 11:13 48.12236 13.67810 30807 ft 460 kts 123°
2026-05-04 11:13 48.10533 13.71872 31098 ft 462 kts 123°
2026-05-04 11:13 48.08818 13.75951 31389 ft 464 kts 123°
2026-05-04 11:13 48.07095 13.80037 31715 ft 465 kts 123°
2026-05-04 11:14 48.06509 13.81423 31862 ft 465 kts 124°
2026-05-04 11:16 47.89849 14.20454 35608 ft 457 kts 124°
2026-05-04 11:16 47.88141 14.24435 35948 ft 456 kts 124°
2026-05-04 11:16 47.86432 14.28407 36282 ft 455 kts 124°
2026-05-04 11:17 47.84728 14.32367 36613 ft 454 kts 124°
2026-05-04 11:17 47.83026 14.36317 36925 ft 453 kts 124°
2026-05-04 11:19 47.69488 14.67443 37026 ft 447 kts 124°
2026-05-04 11:19 47.66100 14.75186 37035 ft 447 kts 124°
2026-05-04 11:20 47.62712 14.82917 37026 ft 447 kts 124°
2026-05-04 11:20 47.59313 14.90637 37021 ft 447 kts 124°
2026-05-04 11:22 47.45649 15.21456 37038 ft 448 kts 124°
2026-05-04 11:23 47.42219 15.29140 37040 ft 448 kts 124°
2026-05-04 11:25 47.30163 15.55997 37045 ft 449 kts 124°
2026-05-04 11:25 47.26706 15.63659 37051 ft 449 kts 124°
2026-05-04 11:27 47.11061 15.97974 37060 ft 449 kts 124°
2026-05-04 11:28 47.07571 16.05582 37056 ft 449 kts 124°
2026-05-04 11:28 47.04082 16.13184 37062 ft 449 kts 124°
2026-05-04 11:29 47.00601 16.20725 37059 ft 449 kts 124°
2026-05-04 11:29 46.97474 16.28638 37063 ft 449 kts 119°
2026-05-04 11:33 46.76242 16.84564 37093 ft 449 kts 119°
2026-05-04 11:33 46.73187 16.92508 37115 ft 449 kts 118°
2026-05-04 11:34 46.70143 17.00387 37122 ft 449 kts 118°
2026-05-04 11:34 46.67087 17.08305 37121 ft 448 kts 118°
2026-05-04 11:35 46.64026 17.16210 37118 ft 448 kts 119°
2026-05-04 11:35 46.60952 17.24094 37118 ft 448 kts 119°
2026-05-04 11:36 46.57876 17.31976 37121 ft 447 kts 118°
2026-05-04 11:36 46.54809 17.39835 37118 ft 447 kts 119°
2026-05-04 11:37 46.51732 17.47677 37106 ft 447 kts 119°
2026-05-04 11:37 46.48641 17.55527 37111 ft 447 kts 119°
2026-05-04 11:38 46.45557 17.63349 37119 ft 447 kts 119°
2026-05-04 11:38 46.42467 17.71163 37118 ft 447 kts 119°
2026-05-04 11:39 46.39372 17.78963 37120 ft 446 kts 119°
2026-05-04 11:41 46.28503 18.06180 37122 ft 446 kts 119°
2026-05-04 11:41 46.25386 18.13928 37099 ft 448 kts 119°
2026-05-04 11:41 46.23811 18.17845 36178 ft 457 kts 119°
2026-05-04 11:42 46.22192 18.21870 35099 ft 468 kts 119°
2026-05-04 11:42 46.20559 18.25925 34518 ft 465 kts 118°
2026-05-04 11:42 46.18934 18.29948 33955 ft 462 kts 118°
2026-05-04 11:42 46.17326 18.33910 33607 ft 453 kts 118°
2026-05-04 11:43 46.15750 18.37786 33335 ft 443 kts 118°
2026-05-04 11:43 46.14209 18.41577 33105 ft 434 kts 118°
2026-05-04 11:43 46.12695 18.45303 33133 ft 430 kts 118°
2026-05-04 11:44 46.09666 18.52745 33129 ft 430 kts 118°
2026-05-04 11:44 46.06629 18.60176 33129 ft 430 kts 118°
2026-05-04 11:45 46.03591 18.67593 33127 ft 431 kts 118°
2026-05-04 11:45 46.00527 18.75034 33125 ft 433 kts 118°
2026-05-04 11:46 45.97459 18.82482 33126 ft 433 kts 118°
2026-05-04 11:46 45.94940 18.88696 33124 ft 432 kts 114°
2026-05-04 11:46 45.93518 18.93991 33075 ft 427 kts 101°
2026-05-04 11:47 45.93103 18.96791 32892 ft 422 kts 95°
2026-05-04 11:47 45.92809 19.02297 32541 ft 416 kts 90°
2026-05-04 11:47 45.92701 19.05090 32365 ft 414 kts 90°
2026-05-04 11:47 45.92543 19.09210 32106 ft 412 kts 90°
2026-05-04 11:48 45.92383 19.13309 31852 ft 410 kts 90°
2026-05-04 11:48 45.92223 19.17387 31599 ft 408 kts 90°
2026-05-04 11:48 45.92064 19.21438 31347 ft 406 kts 90°
2026-05-04 11:48 45.91905 19.25474 31097 ft 404 kts 90°
2026-05-04 11:49 45.91745 19.29491 30867 ft 402 kts 90°
2026-05-04 11:49 45.91582 19.33488 30621 ft 400 kts 90°
2026-05-04 11:49 45.91420 19.37463 30379 ft 398 kts 90°
2026-05-04 11:49 45.91256 19.41415 30128 ft 396 kts 90°
2026-05-04 11:50 45.91090 19.45352 29828 ft 394 kts 90°
2026-05-04 11:50 45.90923 19.49268 29561 ft 392 kts 90°
2026-05-04 11:50 45.90756 19.53162 29283 ft 390 kts 90°
2026-05-04 11:50 45.90590 19.57032 29003 ft 387 kts 90°
2026-05-04 11:51 45.90427 19.60884 28727 ft 385 kts 90°
2026-05-04 11:51 45.90263 19.64715 28456 ft 383 kts 90°
2026-05-04 11:51 45.90095 19.68524 28201 ft 380 kts 90°
2026-05-04 11:51 45.89929 19.72280 27869 ft 375 kts 91°
2026-05-04 11:52 45.89764 19.75992 27484 ft 371 kts 91°
2026-05-04 11:52 45.89598 19.79670 27104 ft 367 kts 91°
2026-05-04 11:52 45.89433 19.83312 26711 ft 364 kts 91°
2026-05-04 11:52 45.89268 19.86921 26323 ft 360 kts 91°
2026-05-04 11:53 45.89106 19.90494 25931 ft 357 kts 91°
2026-05-04 11:53 45.88944 19.94035 25532 ft 354 kts 91°
2026-05-04 11:53 45.88783 19.97543 25131 ft 351 kts 91°
2026-05-04 11:53 45.88623 20.01020 24720 ft 349 kts 91°
2026-05-04 11:55 45.87485 20.24714 21863 ft 329 kts 92°
2026-05-04 11:55 45.87323 20.27970 21488 ft 326 kts 92°
2026-05-04 11:56 45.87164 20.31200 21115 ft 323 kts 92°
2026-05-04 11:56 45.87005 20.34405 20743 ft 321 kts 92°
2026-05-04 11:56 45.86850 20.37587 20377 ft 319 kts 92°
2026-05-04 11:56 45.86696 20.40748 20012 ft 317 kts 92°
2026-05-04 11:57 45.86538 20.43890 19654 ft 315 kts 92°
2026-05-04 11:57 45.86377 20.47016 19293 ft 313 kts 92°
2026-05-04 11:57 45.86214 20.50125 18937 ft 312 kts 92°
2026-05-04 11:57 45.86051 20.53226 18588 ft 311 kts 92°
2026-05-04 11:58 45.85893 20.56277 18205 ft 310 kts 92°
2026-05-04 11:58 45.85732 20.59392 17837 ft 308 kts 92°
2026-05-04 11:58 45.85575 20.62403 17493 ft 306 kts 92°
2026-05-04 11:58 45.85422 20.65436 17145 ft 304 kts 92°
2026-05-04 11:59 45.85282 20.68450 16809 ft 302 kts 92°
2026-05-04 11:59 45.85150 20.71447 16474 ft 300 kts 91°
2026-05-04 11:59 45.84965 20.74425 16138 ft 300 kts 98°
2026-05-04 11:59 45.84401 20.77305 15804 ft 300 kts 107°
2026-05-04 12:00 45.83703 20.80124 15477 ft 299 kts 107°
2026-05-04 12:00 45.83012 20.82933 15148 ft 298 kts 107°
2026-05-04 12:00 45.82324 20.85736 14819 ft 298 kts 107°
2026-05-04 12:00 45.81638 20.88530 14491 ft 298 kts 107°
2026-05-04 12:01 45.80940 20.91355 14132 ft 302 kts 107°
2026-05-04 12:01 45.80238 20.94187 13731 ft 302 kts 107°
2026-05-04 12:02 45.76030 21.11118 11277 ft 299 kts 108°
2026-05-04 12:03 45.75334 21.13913 10886 ft 297 kts 108°
2026-05-04 12:03 45.74642 21.16695 10499 ft 296 kts 108°
2026-05-04 12:03 45.73951 21.19463 10123 ft 294 kts 108°
2026-05-04 12:03 45.73261 21.22216 9709 ft 293 kts 108°
2026-05-04 12:04 45.72574 21.24951 9290 ft 291 kts 108°
2026-05-04 12:04 45.71890 21.27672 8874 ft 290 kts 108°
2026-05-04 12:04 45.71210 21.30373 8464 ft 287 kts 109°
2026-05-04 12:04 45.70534 21.33054 8059 ft 285 kts 109°
2026-05-04 12:05 45.69863 21.35715 7654 ft 283 kts 109°
2026-05-04 12:05 45.69199 21.38359 7257 ft 281 kts 109°
2026-05-04 12:05 45.68538 21.40979 6874 ft 278 kts 109°
2026-05-04 12:05 45.67884 21.43574 6480 ft 276 kts 109°
2026-05-04 12:06 45.67236 21.46138 6113 ft 272 kts 109°
2026-05-04 12:06 45.66597 21.48665 5757 ft 268 kts 110°
2026-05-04 12:06 45.65963 21.51155 5395 ft 265 kts 110°
2026-05-04 12:06 45.65335 21.53618 5054 ft 262 kts 110°
2026-05-04 12:07 45.64715 21.56049 4692 ft 259 kts 109°
2026-05-04 12:07 45.64104 21.58450 4335 ft 255 kts 109°
2026-05-04 12:07 45.63503 21.60816 4044 ft 250 kts 109°
2026-05-04 12:07 45.62915 21.63118 4004 ft 246 kts 109°
2026-05-04 12:08 45.62331 21.65417 4001 ft 249 kts 108°
2026-05-04 12:08 45.62092 21.67876 3998 ft 246 kts 80°
2026-05-04 12:08 45.62719 21.70011 3991 ft 230 kts 48°
2026-05-04 12:08 45.64015 21.71285 4000 ft 228 kts 20°
2026-05-04 12:09 45.65523 21.72011 4005 ft 229 kts 16°
2026-05-04 12:09 45.67061 21.72595 3995 ft 229 kts
2026-05-04 12:09 45.68637 21.72499 3996 ft 227 kts 348°
2026-05-04 12:09 45.70116 21.71705 4006 ft 229 kts 330°
2026-05-04 12:10 45.71351 21.70280 3999 ft 229 kts 312°
2026-05-04 12:10 45.72200 21.68391 3999 ft 221 kts 294°
2026-05-04 12:10 45.72715 21.66399 3995 ft 206 kts 290°
2026-05-04 12:10 45.73188 21.64548 4014 ft 189 kts 290°
2026-05-04 12:11 45.73628 21.62827 4012 ft 182 kts 290°
2026-05-04 12:11 45.74060 21.61134 3914 ft 181 kts 290°
2026-05-04 12:11 45.74488 21.59453 3721 ft 179 kts 290°
2026-05-04 12:11 45.74912 21.57786 3510 ft 177 kts 290°
2026-05-04 12:12 45.75332 21.56132 3281 ft 176 kts 290°
2026-05-04 12:12 45.75753 21.54478 3046 ft 178 kts 290°
2026-05-04 12:12 45.76176 21.52811 2814 ft 179 kts 290°
2026-05-04 12:12 45.76599 21.51146 2566 ft 176 kts 290°
2026-05-04 12:13 45.77013 21.49510 2339 ft 173 kts 290°
2026-05-04 12:14 45.79530 21.39567 947 ft 134 kts 289°
2026-05-04 12:15 45.79845 21.38317 732 ft 133 kts 288°
2026-05-04 12:15 45.80155 21.37075 534 ft 132 kts 288°
2026-05-04 12:15 45.80468 21.35842 363 ft 131 kts 288°
2026-05-04 12:15 45.80765 21.34663 338 ft 122 kts 289°
2026-05-04 12:16 45.81040 21.33559 334 ft 101 kts 289°
2026-05-04 12:16 45.81222 21.32830 333 ft 60 kts 289°
2026-05-04 12:16 45.81348 21.32329 335 ft 32 kts 290°
2026-05-04 12:16 45.81333 21.32140 333 ft 21 kts 206°
2026-05-04 12:17 45.81197 21.32073 336 ft 21 kts 199°
2026-05-04 12:17 45.81124 21.32101 335 ft 11 kts 112°
2026-05-04 12:17 45.81096 21.32212 332 ft 12 kts 110°
2026-05-04 12:17 45.81052 21.32220 336 ft 0 kts 200°
2026-05-04 12:18 45.81051 21.32220 336 ft 0 kts 200°